This demonstration page uses our WeatherBlox Daily Observations layout. Learn more.

Hourly Observations for August 3, 2016

Temp ( °F °C ) Dew Point ( °F °C ) Humidity (%) Winds ( mph kmh ) Pressure ( in mb ) Visibility ( mi km ) Precip ( " mm )
12:54 am 00:54 Clear 74 23.3 72 22.2 94 94 N 7 11 30.01 1016 10 16.0934 0 0
1:54 am 01:54 Clear 76 24.4 72 22.2 88 88 SE 9 15 30 1016 10 16.0934 0 0
2:54 am 02:54 Clear 76 24.4 72 22.2 88 88 SE 7 11 30 1016 10 16.0934 0 0
3:54 am 03:54 Clear 75 23.9 72 22.2 90 90 Calm 30 1016 10 16.0934 0 0
4:54 am 04:54 Clear 74 23.3 72 22.2 94 94 Calm 30 1016 10 16.0934 0 0
5:54 am 05:54 Clear 71 21.7 69 20.6 94 94 N 3 6 30.01 1016 10 16.0934 0 0
6:45 am 06:45 Mostly Sunny 70 21.1 69 20.6 97 97 NNE 3 6 30 1016 7 11.26538 0 0
6:54 am 06:54 Partly Cloudy with Mist and Fog 71 21.7 70 21.1 96 96 NNE 5 7 30.01 1016 6 9.65604 0 0
7:19 am 07:19 Mostly Cloudy with Mist and Fog 73 22.8 71 21.7 94 94 Calm 30.03 1017 5 8.0467 0 0
7:54 am 07:54 Mostly Cloudy 74 23.3 72 22.2 94 94 Calm 30 1016 10 16.0934 0 0
8:38 am 08:38 Partly Cloudy 76 24.4 74 23.3 94 94 S 7 11 29.97 1015 7 11.26538 0 0
8:54 am 08:54 Mostly Sunny 77 25 74 23.3 90 90 S 7 11 30 1016 8 12.87472 0 0
9:54 am 09:54 Sunny 81 27.2 74 23.3 79 79 SSE 9 15 29.98 1015 10 16.0934 0 0
10:54 am 10:54 Sunny 85 29.4 73 22.8 68 68 SSE 10 17 29.98 1015 10 16.0934 0 0
11:54 am 11:54 Sunny 87 30.6 73 22.8 63 63 SE 13 20 29.97 1015 10 16.0934 0 0
12:54 pm 12:54 Mostly Sunny 88 31.1 74 23.3 63 63 SE 10 17 29.96 1015 10 16.0934 0 0
1:54 pm 13:54 Partly Cloudy 89 31.7 75 23.9 63 63 SE 9 15 29.94 1014 10 16.0934 0 0
2:54 pm 14:54 Partly Cloudy 90 32.2 75 23.9 62 62 SE 16 26 29.92 1013 10 16.0934 0 0
3:54 pm 15:54 Mostly Cloudy 89 31.7 76 24.4 65 65 SE 12 19 29.91 1013 10 16.0934 0 0
4:54 pm 16:54 Partly Cloudy 90 32.2 77 25 66 66 SE 13 20 29.89 1012 10 16.0934 0 0
5:54 pm 17:54 Mostly Sunny 90 32.2 76 24.4 63 63 SE 15 24 29.87 1012 10 16.0934 0 0
6:54 pm 18:54 Sunny 89 31.7 77 25 68 68 SE 14 22 29.86 1011 10 16.0934 0 0
7:54 pm 19:54 Sunny 87 30.6 76 24.4 70 70 ESE 14 22 29.84 1011 10 16.0934 0 0
8:54 pm 20:54 Clear 85 29.4 76 24.4 75 75 SE 13 20 29.84 1010 10 16.0934 0 0
9:54 pm 21:54 Clear 84 28.9 77 25 80 80 SE 14 22 29.84 1011 10 16.0934 0 0
10:54 pm 22:54 Clear 83 28.3 77 25 82 82 SSE 10 17 29.84 1011 10 16.0934 0 0
11:54 pm 23:54 Clear 82 27.8 76 24.4 82 82 SSE 15 24 29.83 1010 10 16.0934 0 0

Powered by AerisWeather